ORBCOMM-X 1 21576U 91050C 25310.63270411 .00000538 00000+0 17200-3 0 9999 2 21576 98.3276 14.2197 0004756 110.8941 249.2759 14.43388618802664 ORBCOMM FM01 1 23545U 95017A 25310.76790668 .00012456 00000+0 12258-2 0 9998 2 23545 69.9629 78.1089 0000419 108.4525 251.6676 14.92236679633761 ORBCOMM FM02 1 23546U 95017B 25310.67687709 .00016948 00000+0 16086-2 0 9993 2 23546 69.9626 97.1644 0002067 107.6073 252.5309 14.93575098633414 ORBCOMM FM08 1 25112U 97084A 25310.70673762 .00003047 00000+0 87983-3 0 9999 2 25112 45.0141 43.4502 0008026 245.2195 114.7822 14.46379461462002 ORBCOMM FM10 1 25113U 97084B 25310.64052845 .00002463 00000+0 72264-3 0 9993 2 25113 45.0153 46.4066 0006579 218.1806 141.8580 14.46144799637137 ORBCOMM FM11 1 25114U 97084C 25310.67011124 .00002688 00000+0 78916-3 0 9991 2 25114 45.0141 47.1603 0007369 218.8948 141.1374 14.45884297462090 ORBCOMM FM12 1 25115U 97084D 25310.63063819 .00002660 00000+0 78080-3 0 9998 2 25115 45.0145 47.0860 0006447 216.8299 143.2110 14.45906408461888 ORBCOMM FM09 1 25116U 97084E 25310.67598635 .00002588 00000+0 76317-3 0 9992 2 25116 45.0152 47.9517 0007552 208.2188 151.8255 14.45762141462098 ORBCOMM FM05 1 25117U 97084F 25310.66160926 .00002890 00000+0 83485-3 0 9990 2 25117 45.0151 43.7314 0004146 220.3182 139.7363 14.46496906461236 ORBCOMM FM06 1 25118U 97084G 25310.66958942 .00002995 00000+0 86104-3 0 9991 2 25118 45.0141 43.2633 0003089 222.6578 294.8157 14.46650572462151 ORBCOMM FM07 1 25119U 97084H 25310.65208837 .00002683 00000+0 77506-3 0 9992 2 25119 45.0139 44.1028 0004943 217.1647 142.8863 14.46671558462145 ORBCOMM FM03 1 25158U 98007B 25310.78513350 .00001532 00000+0 57861-3 0 9998 2 25158 107.9641 68.5895 0044197 356.2968 3.7840 14.34874494444491 ORBCOMM FM04 1 25159U 98007C 25310.60558021 .00001569 00000+0 58955-3 0 9999 2 25159 107.9634 71.5371 0040082 353.6102 6.4522 14.35119192444650 ORBCOMM FM17 1 25413U 98046A 25310.25955642 .00001362 00000+0 51863-3 0 9998 2 25413 44.9948 306.9525 0003969 241.0930 118.9519 14.35416676423580 ORBCOMM FM18 1 25414U 98046B 25310.48954042 .00001893 00000+0 65340-3 0 9991 2 25414 44.9923 219.4097 0005386 294.9623 65.0665 14.38995966424747 ORBCOMM FM19 1 25415U 98046C 25310.81028661 .00001886 00000+0 65359-3 0 9990 2 25415 44.9934 220.1054 0004125 295.7020 106.4532 14.38812556424748 ORBCOMM FM20 1 25416U 98046D 25310.74298562 .00001341 00000+0 49016-3 0 9990 2 25416 44.9936 226.0129 0002219 322.5942 37.4751 14.37543249424771 ORBCOMM FM16 1 25417U 98046E 25310.77341264 .00001746 00000+0 60169-3 0 9993 2 25417 44.9930 215.5121 0005465 310.1370 49.9000 14.39372793424798 ORBCOMM FM15 1 25418U 98046F 25310.78536912 .00001775 00000+0 61529-3 0 9994 2 25418 44.9963 221.0326 0005272 310.2536 49.7851 14.39000861424780 ORBCOMM FM14 1 25419U 98046G 25310.76584639 .00002042 00000+0 69540-3 0 9991 2 25419 44.9945 218.9359 0003968 309.6870 50.3629 14.39404232424753 ORBCOMM FM13 1 25420U 98046H 25310.79890646 .00001615 00000+0 57489-3 0 9998 2 25420 44.9969 228.1833 0005935 288.9776 71.0429 14.38062117423760 ORBCOMM FM21 1 25475U 98053A 25310.21438502 .00001254 00000+0 46035-3 0 9996 2 25475 45.0091 316.7569 0003358 255.2185 104.8291 14.37674989417687 ORBCOMM FM22 1 25476U 98053B 25310.00576405 .00001559 00000+0 54796-3 0 9990 2 25476 45.0081 311.4108 0004751 244.8162 115.2194 14.38819416417691 ORBCOMM FM23 1 25477U 98053C 25310.47334869 .00001455 00000+0 52424-3 0 9999 2 25477 45.0089 317.4349 0004102 245.4281 114.6140 14.37899249417877 ORBCOMM FM24 1 25478U 98053D 25310.00652743 .00001535 00000+0 54374-3 0 9998 2 25478 45.0083 316.4877 0004041 250.7522 109.2889 14.38501845417868 ORBCOMM FM25 1 25479U 98053E 25310.32803326 .00001755 00000+0 61548-3 0 9994 2 25479 45.0077 313.2546 0006436 251.7226 108.2922 14.38475194418205 ORBCOMM FM26 1 25480U 98053F 25310.29604985 .00001365 00000+0 49865-3 0 9997 2 25480 45.0073 310.9149 0008408 261.7375 98.2520 14.37470338418096 ORBCOMM FM27 1 25481U 98053G 25310.31250348 .00001619 00000+0 57097-3 0 9999 2 25481 45.0058 313.4765 0002957 268.8706 91.1804 14.38508460418132 ORBCOMM FM28 1 25482U 98053H 25310.54172329 .00001659 00000+0 58230-3 0 9991 2 25482 45.0056 249.7046 0006292 301.3449 58.6784 14.38652292418854 ORBCOMM FM30 1 25980U 99065A 25310.54770089 .00001183 00000+0 43718-3 0 9992 2 25980 45.0299 135.7215 0006205 8.0535 352.0412 14.37635137354934 ORBCOMM FM31 1 25981U 99065B 25310.52751119 .00001322 00000+0 48379-3 0 9997 2 25981 45.0211 129.2762 0003817 38.9910 321.1213 14.37563729354482 ORBCOMM FM32 1 25982U 99065C 25310.59856985 .00001217 00000+0 45748-3 0 9992 2 25982 45.0140 146.4721 0006420 29.0666 331.0538 14.36621240355070 ORBCOMM FM33 1 25983U 99065D 25310.57854847 .00001820 00000+0 61259-3 0 9991 2 25983 45.0295 41.8134 0006561 63.9374 296.2150 14.40378667356594 ORBCOMM FM36 1 25984U 99065E 25310.51902102 .00001696 00000+0 59569-3 0 9996 2 25984 45.0377 136.1922 0002246 299.6976 60.3649 14.38543538354916 ORBCOMM FM35 1 25985U 99065F 25310.53308980 .00001306 00000+0 47961-3 0 9994 2 25985 45.0379 142.3086 0003954 37.8768 322.2358 14.37468788355265 ORBCOMM FM34 1 25986U 99065G 25310.56821366 .00001208 00000+0 44746-3 0 9995 2 25986 45.0374 142.6011 0003602 347.1881 12.8875 14.37441693355380 ORBCOMM FM38 1 33060U 08031A 25310.44333366 .00003002 00000+0 40094-3 0 9991 2 33060 48.4408 357.0063 0005581 292.7626 67.2700 14.82012395935845 ORBCOMM FM41 1 33061U 08031B 25310.58304741 .00002973 00000+0 40141-3 0 9991 2 33061 48.4444 4.6190 0004814 279.0773 231.4075 14.81576054935342 ORBCOMM FM29 1 33062U 08031C 25310.55482566 .00003218 00000+0 43087-3 0 9996 2 33062 48.4398 12.3777 0006490 277.8566 224.2440 14.81707469935258 ORBCOMM FM39 1 33063U 08031D 25310.63397603 .00003047 00000+0 42424-3 0 9997 2 33063 48.4408 37.8696 0007365 250.5882 109.4237 14.80179501934890 ORBCOMM FM37 1 33064U 08031E 25310.61079303 .00002937 00000+0 40815-3 0 9999 2 33064 48.4404 26.2797 0005947 268.7805 233.4777 14.80379187935149 ORBCOMM FM40 1 33065U 08031F 25310.56907439 .00003607 00000+0 46723-3 0 9993 2 33065 48.4422 8.0554 0007064 283.4152 220.9757 14.82814567935282 VESSELSAT 1 1 37840U 11058C 25310.34841927 .00000432 00000+0 90732-4 0 9999 2 37840 19.9630 313.6507 0013502 310.8923 49.0312 14.11386807726412 ORBCOMM FM109 1 40086U 14040A 25310.69425299 .00001087 00000+0 26854-3 0 9997 2 40086 47.0039 63.1381 0002383 267.0471 93.0142 14.58438199601860 ORBCOMM FM107 1 40087U 14040B 25310.71545177 .00001210 00000+0 29418-3 0 9996 2 40087 47.0056 63.9426 0001775 228.8849 131.1884 14.58516830601941 ORBCOMM FM106 1 40088U 14040C 25310.52494556 .00001970 00000+0 35680-3 0 9991 2 40088 47.0602 235.4883 0016792 6.3023 353.8077 14.69874785604410 ORBCOMM FM111 1 40089U 14040D 25310.68698831 .00005762 00000+0 64946-3 0 9991 2 40089 47.0009 65.3725 0028928 157.6467 202.5697 14.87337002611437 ORBCOMM FM104 1 40090U 14040E 25310.10686124 .00000931 00000+0 24294-3 0 9997 2 40090 47.0037 102.1441 0016057 135.5308 224.6869 14.56902461601319 ORBCOMM FM103 1 40091U 14040F 25310.69570681 .00001205 00000+0 29367-3 0 9993 2 40091 47.0059 64.6712 0002419 225.8163 134.2524 14.58435610584904 ORBCOMM FM114 1 41179U 15081A 25310.50784015 .00000996 00000+0 24887-3 0 9993 2 41179 47.0036 334.5331 0003022 278.1123 81.9420 14.58472517525243 ORBCOMM FM119 1 41180U 15081B 25310.77626911 .00001016 00000+0 25337-3 0 9999 2 41180 47.0003 242.6154 0001623 321.4251 38.6519 14.58409768526539 ORBCOMM FM105 1 41181U 15081C 25310.56294260 .00000469 00000+0 17669-3 0 9995 2 41181 47.0013 262.4582 0002368 253.9353 106.1266 14.45355452521345 ORBCOMM FM110 1 41182U 15081D 25310.49896390 .00001361 00000+0 32629-3 0 9995 2 41182 47.0027 334.0953 0001674 158.2832 201.8124 14.58520679525111 ORBCOMM FM118 1 41183U 15081E 25310.39546697 .00001178 00000+0 28770-3 0 9995 2 41183 47.0050 334.8644 0001678 82.8319 277.2757 14.58472428525206 ORBCOMM FM112 1 41184U 15081F 25310.53646106 .00001544 00000+0 36511-3 0 9997 2 41184 46.9989 242.7654 0002103 284.3365 75.7287 14.58541207526446 ORBCOMM FM113 1 41185U 15081G 25310.78760542 .00001314 00000+0 31622-3 0 9999 2 41185 47.0007 241.9274 0001875 297.5090 62.5605 14.58532268526462 ORBCOMM FM115 1 41186U 15081H 25310.75011906 .00001401 00000+0 30597-3 0 9997 2 41186 46.9983 81.3869 0000962 307.4971 52.5828 14.62807142528644 ORBCOMM FM108 1 41187U 15081J 25310.61130024 .00000985 00000+0 24666-3 0 9992 2 41187 47.0035 154.2323 0002752 249.7182 110.3408 14.58463897527580 ORBCOMM FM117 1 41188U 15081K 25310.57758152 .00000938 00000+0 23667-3 0 9994 2 41188 46.9999 153.1073 0003286 258.6138 101.4378 14.58464170527628 ORBCOMM FM116 1 41189U 15081L 25310.76497089 .00001550 00000+0 36653-3 0 9995 2 41189 47.0022 242.0071 0001083 82.6861 277.4147 14.58545409526469